TimeCST,TemperatureF,Dew PointF,Humidity,Sea Level PressureIn,VisibilityMPH,Wind Direction,Wind SpeedMPH,Gust SpeedMPH,PrecipitationIn,Events,Conditions,WindDirDegrees,DateUTC
12:53 AM,53.1,44.1,71,29.85,10.0,Calm,Calm,-,N/A,,Clear,0,2012-12-25 06:53:00
1:53 AM,52.0,44.1,74,29.82,10.0,East,4.6,-,N/A,,Clear,90,2012-12-25 07:53:00
2:19 AM,51.8,44.6,76,29.83,10.0,Calm,Calm,-,N/A,,Scattered Clouds,0,2012-12-25 08:19:00
2:28 AM,53.6,44.6,72,29.83,10.0,Calm,Calm,-,N/A,,Mostly Cloudy,0,2012-12-25 08:28:00
2:53 AM,54.0,46.0,75,29.82,10.0,Calm,Calm,-,N/A,,Overcast,0,2012-12-25 08:53:00
3:30 AM,53.6,50.0,88,29.82,8.0,Calm,Calm,-,N/A,,Overcast,0,2012-12-25 09:30:00
3:53 AM,53.1,51.1,93,29.80,4.0,Calm,Calm,-,N/A,,Overcast,0,2012-12-25 09:53:00
4:02 AM,53.6,51.8,94,29.80,2.0,Calm,Calm,-,N/A,,Overcast,0,2012-12-25 10:02:00
4:07 AM,53.6,51.8,94,29.80,3.0,Calm,Calm,-,N/A,Thunderstorm,Overcast,0,2012-12-25 10:07:00
4:17 AM,53.6,51.8,94,29.80,1.8,Calm,Calm,-,0.04,Rain-Thunderstorm,Heavy Rain,0,2012-12-25 10:17:00
4:46 AM,53.6,53.6,100,29.78,1.2,East,6.9,-,0.39,Rain-Thunderstorm,Heavy Thunderstorms and Rain,90,2012-12-25 10:46:00
4:53 AM,54.0,54.0,100,29.77,2.5,East,4.6,-,0.40,Rain,Rain,90,2012-12-25 10:53:00
5:00 AM,53.6,53.6,100,29.78,6.0,Calm,Calm,-,0.01,Rain,Light Rain,0,2012-12-25 11:00:00
5:33 AM,55.4,55.4,100,29.76,7.0,Calm,Calm,-,0.03,Rain-Thunderstorm,Light Rain,0,2012-12-25 11:33:00
5:40 AM,55.4,55.4,100,29.77,8.0,North,4.6,-,0.03,Rain-Thunderstorm,Light Rain,360,2012-12-25 11:40:00
5:44 AM,55.4,53.6,94,29.77,7.0,North,5.8,-,0.03,Rain-Thunderstorm,Light Rain,10,2012-12-25 11:44:00
5:51 AM,55.4,53.6,94,29.77,7.0,Variable,4.6,-,0.03,Rain,Light Rain,0,2012-12-25 11:51:00
5:53 AM,55.0,54.0,96,29.76,7.0,North,4.6,-,0.03,Rain,Light Rain,10,2012-12-25 11:53:00
6:02 AM,55.4,53.6,94,29.77,8.0,Calm,Calm,-,0.00,Thunderstorm,Overcast,0,2012-12-25 12:02:00
6:20 AM,55.4,53.6,94,29.79,1.8,Calm,Calm,-,0.12,Rain-Thunderstorm,Heavy Thunderstorms and Rain,0,2012-12-25 12:20:00
6:23 AM,55.4,55.4,100,29.80,0.8,SW,3.5,-,0.27,Rain-Thunderstorm,Heavy Thunderstorms and Rain,220,2012-12-25 12:23:00
6:40 AM,55.4,55.4,100,29.78,2.0,WNW,8.1,-,0.56,Rain-Thunderstorm,Heavy Thunderstorms and Rain,290,2012-12-25 12:40:00
6:44 AM,55.4,55.4,100,29.78,1.8,Calm,Calm,-,0.60,Rain-Thunderstorm,Heavy Thunderstorms and Rain,0,2012-12-25 12:44:00
6:53 AM,55.9,55.9,100,29.77,1.5,NNW,5.8,-,0.69,Rain-Thunderstorm,Light Thunderstorms and Rain,330,2012-12-25 12:53:00
6:57 AM,55.4,55.4,100,29.77,4.0,Calm,Calm,-,0.00,Rain-Thunderstorm,Light Rain,0,2012-12-25 12:57:00
7:07 AM,55.4,55.4,100,29.76,5.0,East,3.5,-,0.02,Rain,Light Rain,80,2012-12-25 13:07:00
7:45 AM,57.2,57.2,100,29.74,6.0,East,3.5,-,0.03,Rain,Light Rain,90,2012-12-25 13:45:00
7:53 AM,57.0,57.0,100,29.72,5.0,East,3.5,-,0.03,,Overcast,100,2012-12-25 13:53:00
8:26 AM,57.2,57.2,100,29.70,4.0,Variable,4.6,-,0.00,,Overcast,0,2012-12-25 14:26:00
8:39 AM,57.2,57.2,100,29.71,2.0,Variable,4.6,-,0.00,,Overcast,0,2012-12-25 14:39:00
8:47 AM,57.2,57.2,100,29.70,1.8,SE,4.6,-,0.00,Thunderstorm,Overcast,130,2012-12-25 14:47:00
8:53 AM,57.2,57.2,100,29.70,1.8,SSE,6.9,-,N/A,Thunderstorm,Overcast,150,2012-12-25 14:53:00
9:01 AM,60.8,60.8,100,29.71,3.0,SSE,9.2,-,N/A,Thunderstorm,Overcast,150,2012-12-25 15:01:00
9:16 AM,62.6,62.6,100,29.70,8.0,South,16.1,21.9,0.00,Rain-Thunderstorm,Light Rain,170,2012-12-25 15:16:00
9:46 AM,64.4,64.4,100,29.70,7.0,South,17.3,26.5,0.04,Rain,Light Rain,180,2012-12-25 15:46:00
9:53 AM,66.0,64.0,93,29.67,9.0,South,17.3,26.5,0.04,Rain,Light Rain,170,2012-12-25 15:53:00
10:04 AM,66.2,64.4,94,29.67,10.0,South,16.1,-,0.00,,Overcast,170,2012-12-25 16:04:00
10:18 AM,66.2,64.4,94,29.69,10.0,South,12.7,24.2,0.00,,Mostly Cloudy,190,2012-12-25 16:18:00
10:23 AM,66.2,64.4,94,29.71,10.0,SSW,12.7,24.2,0.00,,Mostly Cloudy,210,2012-12-25 16:23:00
10:53 AM,68.0,64.0,87,29.68,10.0,South,12.7,18.4,0.00,,Overcast,180,2012-12-25 16:53:00
11:23 AM,71.6,64.4,78,29.67,10.0,South,13.8,20.7,N/A,,Mostly Cloudy,180,2012-12-25 17:23:00
11:53 AM,71.1,61.0,70,29.64,10.0,South,15.0,23.0,N/A,,Overcast,180,2012-12-25 17:53:00
12:53 PM,70.0,62.1,76,29.58,10.0,SSE,13.8,24.2,N/A,,Overcast,160,2012-12-25 18:53:00
1:53 PM,66.9,63.0,87,29.54,10.0,South,16.1,24.2,0.02,Rain,Light Rain,170,2012-12-25 19:53:00
2:53 PM,66.0,63.0,90,29.51,10.0,South,12.7,-,0.02,Thunderstorm,Overcast,170,2012-12-25 20:53:00
3:26 PM,66.2,64.4,94,29.52,2.0,West,15.0,20.7,0.18,Rain-Thunderstorm,Thunderstorms and Rain,270,2012-12-25 21:26:00
3:33 PM,64.4,62.6,94,29.53,1.0,West,16.1,23.0,0.33,Rain-Thunderstorm,Heavy Thunderstorms and Rain,280,2012-12-25 21:33:00
3:49 PM,60.8,59.0,94,29.53,2.5,West,12.7,25.3,0.55,Rain-Thunderstorm,Thunderstorms and Rain,260,2012-12-25 21:49:00
3:53 PM,61.0,59.0,93,29.51,4.0,West,12.7,19.6,0.55,Rain-Thunderstorm,Thunderstorms and Rain,280,2012-12-25 21:53:00
4:48 PM,60.8,59.0,94,29.50,10.0,SE,3.5,-,0.01,,Mostly Cloudy,140,2012-12-25 22:48:00
4:53 PM,60.1,59.0,96,29.51,10.0,SSE,4.6,-,0.01,,Mostly Cloudy,160,2012-12-25 22:53:00
5:53 PM,60.1,59.0,96,29.53,10.0,South,6.9,-,N/A,,Overcast,190,2012-12-25 23:53:00
6:53 PM,59.0,54.0,83,29.57,10.0,WSW,10.4,17.3,N/A,,Partly Cloudy,250,2012-12-26 00:53:00
7:53 PM,55.9,46.0,69,29.60,10.0,West,18.4,26.5,N/A,,Clear,270,2012-12-26 01:53:00
8:53 PM,53.1,43.0,69,29.63,10.0,West,13.8,27.6,N/A,,Clear,270,2012-12-26 02:53:00
9:53 PM,52.0,43.0,71,29.65,10.0,West,13.8,21.9,N/A,,Overcast,270,2012-12-26 03:53:00
10:53 PM,46.9,36.0,66,29.70,10.0,West,21.9,34.5,N/A,,Scattered Clouds,280,2012-12-26 04:53:00
11:34 PM,44.6,35.6,71,29.74,10.0,WNW,15.0,25.3,N/A,,Overcast,290,2012-12-26 05:34:00
11:53 PM,44.1,33.1,65,29.75,10.0,WNW,23.0,29.9,N/A,,Overcast,290,2012-12-26 05:53:00